ISLLER69 Weather Reports


time (UTC)temp
F
wind
direction
speed
knots
gust
knots
rain 1hr
in
rain 24hr
in
rain mn
in
humidity
%
barometer
mb
20260902194547 80 228 0.0 0.0 0.00 0.00 0.00 83 1020.5
20260902194057 80 228 0.0 0.0 0.00 0.00 0.00 83 1020.5
20260902193605 80 228 0.0 0.9 0.00 0.00 0.00 83 1020.5
20260902193006 80 228 0.0 0.9 0.00 0.00 0.00 83 1020.5
20260902192515 81 281 0.0 0.9 0.00 0.00 0.00 82 1020.3
20260902192023 81 268 0.0 1.7 0.00 0.00 0.00 82 1020.1
20260902191532 81 243 0.0 2.6 0.00 0.00 0.00 82 1020.0
20260902191040 81 249 0.0 2.6 0.00 0.00 0.00 82 1019.9
20260902190549 81 227 0.0 2.6 0.00 0.00 0.00 82 1019.8
20260902190058 81 220 0.9 2.6 0.00 0.00 0.00 82 1019.8
20260902185502 81 240 0.9 2.6 0.00 0.00 0.00 82 1019.7
20260902185011 81 283 0.0 2.6 0.00 0.00 0.00 81 1019.7
20260902184520 81 220 0.0 2.6 0.00 0.00 0.00 81 1019.6
20260902184028 81 240 0.0 1.7 0.00 0.00 0.00 81 1019.7
20260902183538 81 276 0.0 0.9 0.00 0.00 0.00 81 1019.5
20260902183046 82 256 0.0 1.7 0.00 0.00 0.00 80 1019.3
20260902182554 82 234 0.0 1.7 0.00 0.00 0.00 80 1019.5
20260902182104 82 235 0.0 2.6 0.00 0.00 0.00 80 1019.5
20260902181509 82 281 0.9 2.6 0.00 0.00 0.00 79 1019.5
20260902181017 82 245 0.0 3.5 0.00 0.00 0.00 79 1019.6
20260902180526 83 240 0.9 3.5 0.00 0.00 0.00 79 1019.5
20260902180040 83 276 0.9 4.3 0.00 0.00 0.00 78 1019.5
20260902175544 83 234 2.6 4.3 0.00 0.00 0.00 78 1019.6
20260902175053 83 264 1.7 4.3 0.00 0.00 0.00 77 1019.5
20260902174607 83 259 1.7 4.3 0.00 0.00 0.00 77 1019.6
20260902174006 84 244 0.9 3.5 0.00 0.00 0.00 77 1019.5
20260902173516 84 243 0.9 3.5 0.00 0.00 0.00 77 1019.5
20260902173033 84 243 1.7 5.2 0.00 0.00 0.00 76 1019.5
20260902172531 84 288 2.6 6.1 0.00 0.00 0.00 76 1019.5
20260902172041 84 285 2.6 6.1 0.00 0.00 0.00 75 1019.6
20260902171559 84 270 2.6 5.2 0.00 0.00 0.00 75 1019.6
20260902171057 85 261 1.7 5.2 0.00 0.00 0.00 75 1019.6
20260902170501 85 248 0.9 4.3 0.00 0.00 0.00 74 1019.5
20260902170012 85 271 1.7 4.3 0.00 0.00 0.00 75 1019.4
20260902165524 85 257 1.7 4.3 0.00 0.00 0.00 75 1019.6
20260902165030 85 281 1.7 5.2 0.00 0.00 0.00 75 1019.5
20260902164537 85 251 1.7 6.1 0.00 0.00 0.00 75 1019.5
20260902164047 85 304 2.6 6.1 0.00 0.00 0.00 74 1019.5
20260902163556 85 283 2.6 6.1 0.00 0.00 0.00 74 1019.5
20260902163107 85 290 2.6 6.1 0.00 0.00 0.00 73 1019.5
20260902162508 85 283 2.6 7.0 0.00 0.00 0.00 74 1019.5
20260902162016 85 313 2.6 6.1 0.00 0.00 0.00 73 1019.5
20260902161537 85 262 3.5 8.7 0.00 0.00 0.00 73 1019.5
20260902161034 85 283 3.5 8.7 0.00 0.00 0.00 73 1019.5
20260902160542 85 44 2.6 6.1 0.00 0.00 0.00 73 1019.5
20260902160054 85 273 2.6 7.0 0.00 0.00 0.00 73 1019.6
20260902155601 85 276 2.6 7.0 0.00 0.00 0.00 73 1019.6
20260902155110 85 242 4.3 8.7 0.00 0.00 0.00 73 1019.7
20260902154514 85 251 3.5 8.7 0.00 0.00 0.00 73 1019.7
20260902154021 85 251 4.3 7.8 0.00 0.00 0.00 72 1019.8
20260902153531 86 286 3.5 7.0 0.00 0.00 0.00 72 1019.7
20260902153040 86 321 3.5 7.0 0.00 0.00 0.00 72 1019.7
20260902152548 86 301 2.6 7.0 0.00 0.00 0.00 72 1019.8
20260902152058 86 275 3.5 6.1 0.00 0.00 0.00 72 1019.8
20260902151508 86 247 2.6 7.8 0.00 0.00 0.00 73 1019.8
20260902151010 85 316 4.3 7.8 0.00 0.00 0.00 73 1019.9
20260902150521 86 295 3.5 7.8 0.00 0.00 0.00 73 1019.9
20260902150030 86 246 3.5 7.8 0.00 0.00 0.00 72 1019.9
20260902145535 86 277 2.6 8.7 0.00 0.00 0.00 73 1019.9
20260902145044 86 272 4.3 8.7 0.00 0.00 0.00 72 1019.9
20260902144553 85 285 4.3 8.7 0.00 0.00 0.00 72 1019.9
20260902144100 85 230 4.3 9.6 0.00 0.00 0.00 72 1019.9
20260902143505 86 292 3.5 9.6 0.00 0.00 0.00 72 1019.9
20260902143010 86 315 5.2 9.6 0.00 0.00 0.00 71 1020.0
20260902142519 86 282 4.3 8.7 0.00 0.00 0.00 71 1020.0
20260902142028 86 226 3.5 8.7 0.00 0.00 0.00 71 1020.0
20260902141538 86 304 4.3 8.7 0.00 0.00 0.00 68 1020.0
20260902141047 86 309 4.3 8.7 0.00 0.00 0.00 70 1020.1
20260902140551 87 284 4.3 8.7 0.00 0.00 0.00 69 1020.0
20260902140101 87 345 3.5 8.7 0.00 0.00 0.00 66 1019.9
20260902135508 87 276 3.5 7.8 0.00 0.00 0.00 66 1020.1
20260902135012 86 285 4.3 8.7 0.00 0.00 0.00 66 1020.2
20260902134519 87 300 4.3 8.7 0.00 0.00 0.00 67 1020.3
20260902134029 87 321 4.3 7.8 0.00 0.00 0.00 67 1020.3
20260902133535 87 267 3.5 7.8 0.00 0.00 0.00 68 1020.4
20260902133044 88 295 2.6 7.0 0.00 0.00 0.00 66 1020.4
20260902132552 87 272 3.5 7.8 0.00 0.00 0.00 64 1020.4
20260902132103 87 281 3.5 7.8 0.00 0.00 0.00 65 1020.5
20260902131506 87 291 4.3 8.7 0.00 0.00 0.00 64 1020.5
20260902131015 87 258 3.5 8.7 0.00 0.00 0.00 68 1020.5
20260902130524 86 293 4.3 8.7 0.00 0.00 0.00 68 1020.5
20260902130035 87 273 3.5 7.0 0.00 0.00 0.00 68 1020.5
20260902125541 86 221 4.3 7.8 0.00 0.00 0.00 68 1020.5
20260902125050 86 271 4.3 9.6 0.00 0.00 0.00 70 1020.4
20260902124504 86 323 6.1 9.6 0.00 0.00 0.00 70 1020.4
20260902124027 86 291 4.3 9.6 0.00 0.00 0.00 70 1020.4
20260902123538 86 291 4.3 9.6 0.00 0.00 0.00 71 1020.4
20260902123044 86 278 4.3 8.7 0.00 0.00 0.00 71 1020.5
20260902122554 86 245 4.3 10.4 0.00 0.00 0.00 70 1020.5
20260902122102 87 289 4.3 10.4 0.00 0.00 0.00 70 1020.5
20260902121506 86 214 6.1 10.4 0.00 0.00 0.00 71 1020.5
20260902121015 87 304 5.2 10.4 0.00 0.00 0.00 69 1020.4
20260902120524 87 255 5.2 10.4 0.00 0.00 0.00 69 1020.5
20260902120032 87 233 4.3 7.8 0.00 0.00 0.00 68 1020.5
20260902115546 87 318 3.5 7.8 0.00 0.00 0.00 68 1020.3
20260902115050 87 331 2.6 6.1 0.00 0.00 0.00 67 1020.3
20260902114617 87 281 3.5 7.8 0.00 0.00 0.00 66 1020.4
20260902114003 87 293 2.6 7.0 0.00 0.00 0.00 65 1020.5
20260902113511 87 252 3.5 7.0 0.00 0.00 0.00 70 1020.6
20260902113019 86 305 3.5 7.0 0.00 0.00 0.00 71 1020.4
20260902112528 86 285 4.3 7.0 0.00 0.00 0.00 71 1020.4
20260902112037 86 262 4.3 9.6 0.00 0.00 0.00 71 1020.6
20260902111553 86 297 3.5 10.4 0.00 0.00 0.00 71 1020.7
20260902111050 86 314 5.2 10.4 0.00 0.00 0.00 71 1020.7
20260902110602 86 302 6.1 8.7 0.00 0.00 0.00 71 1020.8
20260902110114 87 294 3.5 8.7 0.00 0.00 0.00 68 1020.7
20260902105511 87 298 4.3 8.7 0.00 0.00 0.00 68 1020.5
20260902105019 86 198 3.5 7.0 0.00 0.00 0.00 67 1020.5
20260902104536 87 327 1.7 6.1 0.00 0.00 0.00 68 1020.6
20260902104039 86 266 1.7 6.1 0.00 0.00 0.00 69 1020.7
20260902103549 86 277 1.7 6.1 0.00 0.00 0.00 69 1020.8
20260902103157 86 289 1.7 4.3 0.00 0.00 0.00 70 1020.8
20260902102504 85 265 3.5 7.8 0.00 0.00 0.00 70 1021.0
20260902102014 85 279 3.5 7.8 0.00 0.00 0.00 70 1021.0
20260902101520 86 285 3.5 7.8 0.00 0.00 0.00 70 1021.0
20260902101031 85 305 3.5 7.8 0.00 0.00 0.00 71 1021.0
20260902100540 85 284 3.5 7.0 0.00 0.00 0.00 70 1020.9
20260902100045 86 307 3.5 7.8 0.00 0.00 0.00 70 1020.9
20260902095553 85 240 2.6 9.6 0.00 0.00 0.00 69 1020.9
20260902095102 85 326 4.3 9.6 0.00 0.00 0.00 69 1020.9
20260902094506 85 292 3.5 7.8 0.00 0.00 0.00 69 1020.9
20260902094014 85 295 2.6 8.7 0.00 0.00 0.00 70 1020.8
20260902093524 85 276 5.2 8.7 0.00 0.00 0.00 70 1020.8
20260902093032 85 276 3.5 7.0 0.00 0.00 0.00 69 1020.7
20260902092540 86 304 3.5 7.0 0.00 0.00 0.00 69 1020.6
20260902092052 87 314 2.6 6.1 0.00 0.00 0.00 67 1020.6
20260902091558 87 271 0.0 3.5 0.00 0.00 0.00 63 1020.5
20260902091109 87 278 1.7 3.5 0.00 0.00 0.00 63 1020.3
20260902090511 87 280 0.0 0.0 0.00 0.00 0.00 61 1020.3
20260902090016 86 302 0.0 0.0 0.00 0.00 0.00 60 1020.3
20260902085525 86 281 0.0 0.0 0.00 0.00 0.00 59 1020.3
20260902085034 86 224 0.0 0.0 0.00 0.00 0.00 59 1020.2
20260902084542 86 278 0.0 0.0 0.00 0.00 0.00 59 1020.1
20260902084053 86 32 0.0 0.0 0.00 0.00 0.00 59 1020.2
20260902083559 86 65 0.0 0.0 0.00 0.00 0.00 59 1020.3
20260902083108 86 99 0.0 0.0 0.00 0.00 0.00 60 1020.2
20260902082511 85 250 0.0 0.0 0.00 0.00 0.00 61 1020.2
20260902082019 84 290 0.0 0.0 0.00 0.00 0.00 62 1020.1
20260902081536 84 290 0.0 0.0 0.00 0.00 0.00 62 1020.1
20260902081036 83 354 0.0 0.0 0.00 0.00 0.00 63 1020.1
20260902080544 83 353 0.0 0.0 0.00 0.00 0.00 64 1019.9
20260902080053 82 96 0.0 0.0 0.00 0.00 0.00 66 1019.8
20260902075601 82 77 0.0 0.0 0.00 0.00 0.00 65 1019.8
20260902075113 82 87 0.0 0.0 0.00 0.00 0.00 65 1019.8
20260902074518 81 117 0.0 0.0 0.00 0.00 0.00 69 1019.8
20260902074024 80 116 0.0 0.0 0.00 0.00 0.00 70 1019.8
20260902073531 79 38 0.0 0.0 0.00 0.00 0.00 71 1019.7
20260902073040 78 328 0.0 0.0 0.00 0.00 0.00 73 1019.7
20260902072549 77 326 0.0 0.0 0.00 0.00 0.00 73 1019.8
20260902072057 78 306 0.0 0.0 0.00 0.00 0.00 74 1019.7
20260902071505 77 303 0.0 0.0 0.00 0.00 0.00 77 1019.7
20260902071011 76 303 0.0 0.0 0.00 0.00 0.00 78 1019.7
20260902070519 75 303 0.0 0.0 0.00 0.00 0.00 78 1019.6
20260902070028 75 72 0.0 0.0 0.00 0.00 0.00 78 1019.6
20260902065537 74 127 0.0 0.0 0.00 0.00 0.00 79 1019.6
20260902065050 73 127 0.0 0.0 0.00 0.00 0.00 81 1019.6
20260902064555 73 117 0.0 0.0 0.00 0.00 0.00 83 1019.6
20260902064105 72 82 0.0 0.0 0.00 0.00 0.00 84 1019.6
20260902063507 72 87 0.0 0.0 0.00 0.00 0.00 84 1019.6
20260902063019 71 84 0.0 0.0 0.00 0.00 0.00 85 1019.7
20260902062525 71 321 0.0 0.0 0.00 0.00 0.00 85 1019.7
20260902062036 71 9 0.0 0.0 0.00 0.00 0.00 85 1019.5
20260902061549 71 9 0.0 0.0 0.00 0.00 0.00 85 1019.4
20260902061054 70 10 0.0 0.0 0.00 0.00 0.00 86 1019.4
20260902060602 70 10 0.0 0.0 0.00 0.00 0.00 86 1019.3
20260902060015 70 10 0.0 0.0 0.00 0.00 0.00 86 1019.2
20260902055517 70 115 0.0 0.0 0.00 0.00 0.00 86 1019.1
20260902055024 70 115 0.0 0.0 0.00 0.00 0.00 86 1019.1
20260902054539 70 25 0.0 0.0 0.00 0.00 0.00 87 1019.1
20260902054041 70 24 0.0 0.0 0.00 0.00 0.00 87 1019.1
20260902053550 70 68 0.0 0.0 0.00 0.00 0.00 87 1019.0
20260902053103 70 307 0.0 0.0 0.00 0.00 0.00 87 1019.0
20260902052605 70 307 0.0 0.0 0.00 0.00 0.00 87 1019.1
20260902052009 70 307 0.0 0.0 0.00 0.00 0.00 87 1019.0
20260902051517 70 291 0.0 0.0 0.00 0.00 0.00 88 1018.9
20260902051033 70 90 0.0 0.0 0.00 0.00 0.00 87 1018.9
20260902050535 70 90 0.0 0.0 0.00 0.00 0.00 87 1018.9
20260902050046 70 90 0.0 0.0 0.00 0.00 0.00 87 1018.9
20260902045552 70 90 0.0 0.0 0.00 0.00 0.00 87 1018.8
20260902045101 70 90 0.0 0.0 0.00 0.00 0.00 87 1018.8
20260902044505 70 90 0.0 0.0 0.00 0.00 0.00 87 1018.9
20260902044014 70 91 0.0 0.0 0.00 0.00 0.00 88 1018.9
20260902043521 70 91 0.0 0.0 0.00 0.00 0.00 87 1018.9
20260902043030 70 72 0.0 0.0 0.00 0.00 0.00 87 1018.9
20260902042541 71 351 0.0 0.0 0.00 0.00 0.00 87 1018.9
20260902042047 71 351 0.0 0.0 0.00 0.00 0.00 88 1018.8
20260902041557 71 351 0.0 0.0 0.00 0.00 0.00 87 1018.8
20260902041102 71 350 0.0 0.0 0.00 0.00 0.00 87 1018.9
20260902040611 71 350 0.0 0.0 0.00 0.00 0.00 88 1018.8
20260902040014 71 349 0.0 0.0 0.00 0.00 0.00 87 1018.8
20260902035522 71 350 0.0 0.0 0.00 0.00 0.00 87 1018.9
20260902035039 71 350 0.0 0.0 0.00 0.00 0.00 87 1018.9
20260902034602 71 348 0.0 0.0 0.00 0.00 0.00 87 1018.9
20260902034058 71 348 0.0 0.0 0.00 0.00 0.00 87 1019.0
20260902033607 71 348 0.0 0.0 0.00 0.00 0.00 87 1019.0
20260902033019 71 348 0.0 0.0 0.00 0.00 0.00 87 1018.9
20260902032529 71 348 0.0 0.0 0.00 0.00 0.00 87 1019.0
20260902032036 71 348 0.0 0.0 0.00 0.00 0.00 87 1018.9
20260902031548 71 348 0.0 0.0 0.00 0.00 0.00 86 1019.0
20260902031056 72 348 0.0 0.0 0.00 0.00 0.00 86 1019.0
20260902030603 72 348 0.0 0.0 0.00 0.00 0.00 86 1019.0
20260902030006 72 348 0.0 0.0 0.00 0.00 0.00 86 1019.1
20260902025515 72 348 0.0 0.0 0.00 0.00 0.00 86 1019.0
20260902025022 72 103 0.0 0.0 0.00 0.00 0.00 85 1019.1
20260902024534 72 103 0.0 0.0 0.00 0.00 0.00 86 1019.2
20260902024040 72 103 0.0 0.0 0.00 0.00 0.00 86 1019.3
20260902023548 72 109 0.0 0.0 0.00 0.00 0.00 87 1019.4
20260902023057 72 70 0.0 0.0 0.00 0.00 0.00 87 1019.3
20260902022501 72 23 0.0 0.0 0.00 0.00 0.00 87 1019.4
20260902022010 72 26 0.0 0.0 0.00 0.00 0.00 87 1019.5
20260902021518 72 117 0.0 0.0 0.00 0.00 0.00 87 1019.6
20260902021029 72 117 0.0 0.0 0.00 0.00 0.00 87 1019.5
20260902020535 72 117 0.0 0.0 0.00 0.00 0.00 87 1019.4
20260902020053 72 117 0.0 0.0 0.00 0.00 0.00 87 1019.4
20260902015553 72 119 0.0 0.0 0.00 0.00 0.00 86 1019.5
20260902015101 72 119 0.0 0.0 0.00 0.00 0.00 87 1019.6
20260902014507 72 119 0.0 0.0 0.00 0.00 0.00 86 1019.6
20260902014014 73 119 0.0 0.0 0.00 0.00 0.00 86 1019.5
20260902013534 73 119 0.0 0.0 0.00 0.00 0.00 87 1019.6
20260902013042 73 119 0.0 0.0 0.00 0.00 0.00 87 1019.6
20260902012549 73 119 0.0 0.9 0.00 0.00 0.00 86 1019.7
20260902012058 73 119 0.0 0.9 0.00 0.00 0.00 86 1019.6
20260902011502 73 119 0.0 0.9 0.00 0.00 0.00 86 1019.7
20260902011011 73 119 0.0 0.0 0.00 0.00 0.00 86 1019.7
20260902010519 73 119 0.0 0.0 0.00 0.00 0.00 86 1019.7
20260902010034 73 119 0.0 0.0 0.00 0.00 0.00 86 1019.8
20260902005536 73 119 0.0 0.9 0.00 0.00 0.00 86 1019.8
20260902005048 73 119 0.0 0.9 0.00 0.00 0.00 86 1019.8
20260902004557 73 122 0.0 0.9 0.00 0.00 0.00 86 1019.8
20260902004106 73 123 0.0 0.9 0.00 0.00 0.00 86 1019.8
20260902003512 74 123 0.0 0.0 0.00 0.00 0.00 86 1019.9
20260902003019 74 123 0.0 0.9 0.00 0.00 0.00 86 1020.0
20260902002528 74 123 0.0 0.9 0.00 0.00 0.00 86 1019.9
20260902002036 74 92 0.0 0.9 0.00 0.00 0.00 86 1019.9
20260902001553 74 340 0.0 0.9 0.00 0.00 0.00 86 1019.9
20260902001052 74 340 0.0 0.9 0.00 0.00 0.00 86 1019.9
20260902000505 74 340 0.0 0.0 0.00 0.00 0.00 86 1019.9
20260902000021 74 340 0.0 0.0 0.00 0.00 0.00 85 1020.0
20260901235523 74 340 0.0 0.9 0.00 0.00 0.00 85 1019.9
20260901235033 75 340 0.0 0.9 0.00 0.00 0.00 85 1019.8
20260901234540 75 340 0.0 0.9 0.00 0.00 0.00 85 1020.0
20260901234048 75 302 0.0 0.9 0.00 0.00 0.00 85 1019.9
20260901233602 75 302 0.0 0.0 0.00 0.00 0.00 84 1020.0
20260901233001 75 302 0.0 0.0 0.00 0.00 0.00 84 1020.1
20260901232509 76 302 0.0 0.9 0.00 0.00 0.00 84 1020.0
20260901232019 76 302 0.0 1.7 0.00 0.00 0.00 84 1019.9
20260901231528 76 302 0.0 1.7 0.00 0.00 0.00 84 1019.9
20260901231035 76 92 0.0 0.0 0.00 0.00 0.00 84 1019.9
20260901230545 76 93 0.0 0.0 0.00 0.00 0.00 84 1019.9
20260901230054 76 92 0.0 0.0 0.00 0.00 0.00 83 1019.8
20260901225604 76 92 0.0 0.0 0.00 0.00 0.00 84 1019.7
20260901225005 76 92 0.0 0.9 0.00 0.00 0.00 83 1019.6
20260901224518 76 93 0.0 0.9 0.00 0.00 0.00 83 1019.6
20260901224019 76 139 0.0 0.9 0.00 0.00 0.00 83 1019.8
20260901223528 76 184 0.0 0.0 0.00 0.00 0.00 82 1019.8
20260901223042 76 184 0.0 0.0 0.00 0.00 0.00 82 1019.7
20260901222545 77 184 0.0 0.9 0.00 0.00 0.00 82 1019.7
20260901222055 77 184 0.0 1.7 0.00 0.00 0.00 82 1019.7
20260901221608 77 214 0.0 1.7 0.00 0.00 0.00 82 1019.6
20260901221007 77 121 0.0 0.9 0.00 0.00 0.00 81 1019.5
20260901220516 77 84 0.0 0.9 0.00 0.00 0.00 81 1019.4
20260901220029 77 98 0.0 0.9 0.00 0.00 0.00 81 1019.3
20260901215529 77 134 0.0 0.9 0.00 0.00 0.00 81 1019.3
20260901215039 77 134 0.0 0.9 0.00 0.00 0.00 81 1019.3
20260901214547 78 212 0.0 0.9 0.00 0.00 0.00 81 1019.1
20260901214054 78 85 0.0 0.9 0.00 0.00 0.00 80 1019.1
20260901213603 78 86 0.0 2.6 0.00 0.00 0.00 80 1018.9
20260901213008 78 89 0.0 2.6 0.00 0.00 0.00 79 1018.9
20260901212518 79 88 0.0 0.0 0.00 0.00 0.00 79 1019.0
20260901212026 79 88 0.0 1.7 0.00 0.00 0.00 79 1018.9
20260901211539 79 88 0.0 1.7 0.00 0.00 0.00 78 1018.9
20260901211047 79 84 0.0 1.7 0.00 0.00 0.00 78 1018.8
20260901210552 80 79 0.0 1.7 0.00 0.00 0.00 77 1018.9
20260901210104 80 216 0.0 0.9 0.00 0.00 0.00 77 1018.9
20260901205528 80 143 0.0 2.6 0.00 0.00 0.00 77 1019.0
20260901205043 80 128 0.0 2.6 0.00 0.00 0.00 77 1019.0
20260901204552 80 158 0.0 2.6 0.00 0.00 0.00 77 1019.2
20260901204102 80 200 0.0 2.6 0.00 0.00 0.00 77 1019.2
20260901203507 80 174 0.9 2.6 0.00 0.00 0.00 77 1019.1
20260901203019 80 148 0.0 5.2 0.00 0.00 0.00 77 1019.1
20260901202522 81 157 1.7 6.1 0.00 0.00 0.00 77 1019.1
20260901202032 81 229 1.7 7.0 0.00 0.00 0.00 77 1019.2
20260901201540 81 262 2.6 7.8 0.00 0.00 0.00 77 1018.9
20260901201046 81 232 4.3 10.4 0.00 0.00 0.00 77 1018.9
20260901200553 81 242 6.1 9.6 0.00 0.00 0.00 77 1018.7
20260901200103 81 259 5.2 7.8 0.00 0.00 0.00 77 1018.6
20260901195504 81 278 2.6 7.0 0.00 0.00 0.00 77 1018.4
20260901195016 81 230 3.5 6.1 0.00 0.00 0.00 76 1018.3